Location: Wawayanda State Park
(41.1833°N, 74.4333°W)
Time: 02:32:16
(UTC-04:00)

Landsat 7 - Visible Passes

Search period start: 26 July 2016 00:00
Search period end: 05 August 2016 00:00
Orbit: 702 x 703 km, 98.2° (Epoch: 25 July)

Date Brightness Start Highest point End Pass type
(mag) Time Alt. Az. Time Alt. Az. Time Alt. Az.
26 Jul 5.9 21:14:32 10° E 21:16:46 13° ENE 21:19:00 10° NNE visible
26 Jul 3.9 22:52:47 51° SSW 22:53:54 72° WSW 22:58:40 10° NNW visible
27 Jul 4.8 21:57:13 24° ESE 21:59:05 32° ENE 22:03:19 10° N visible
27 Jul 5.3 23:36:06 25° WSW 23:36:50 26° W 23:40:50 10° NW visible
28 Jul 6.1 21:04:27 10° ENE 21:04:44 10° ENE 21:05:01 10° NE visible
28 Jul 3.7 22:40:32 53° SSE 22:41:41 86° ENE 22:46:29 10° NNW visible
29 Jul 5.1 21:44:59 19° ESE 21:46:59 25° ENE 21:50:50 10° NNE visible
29 Jul 4.9 23:23:52 33° WSW 23:24:32 35° W 23:28:54 10° NNW visible
30 Jul 3.8 22:28:19 47° SE 22:29:29 65° ENE 22:34:13 10° N visible
31 Jul 6.2 00:07:12 13° W 00:07:39 13° W 00:09:51 10° WNW visible
31 Jul 5.5 21:32:45 15° E 21:34:53 20° ENE 21:38:15 10° NNE visible
31 Jul 4.4 23:11:39 43° WSW 23:12:16 46° W 23:16:52 10° NNW visible
01 Aug 4.2 22:16:05 39° ESE 22:17:19 49° ENE 22:21:54 10° N visible
01 Aug 5.9 23:54:59 17° W 23:55:18 17° W 23:58:28 10° NW visible
02 Aug 5.7 21:20:32 11° E 21:22:48 15° ENE 21:25:30 10° NNE visible
02 Aug 4.0 22:59:26 57° SW 23:00:01 62° WSW 23:04:45 10° NNW visible
03 Aug 4.6 22:03:52 31° ESE 22:05:10 37° ENE 22:09:32 10° N visible
03 Aug 5.6 23:42:46 23° W 23:42:59 23° W 23:46:45 10° NW visible
04 Aug 5.9 21:09:08 10° E 21:10:45 12° ENE 21:12:22 10° NE visible
04 Aug 3.7 22:47:13 69° S 22:47:47 83° WSW 22:52:35 10° NNW visible
